• In Deutschland
  • Länderverzeichnis
  • Für 7 Tage
  • Wassertemperatur
  • Satellitenkarten
  • Wetterkarte
  • Widgets
  • user-avatar
    Anmelden

    Stündliche Wetter Berchtesgaden

    Heute, 23 Oktober, Montag

    Zeit Temperatur Niederschläge Wind Luftdruck Luftfeuchtigkeit
    00:00 +5°C° 0,8 mm 2 m/S 705 mmHg 95%
    01:00 +5°C° 0 mm 2 m/S 705 mmHg 95%
    02:00 +5°C° 1 mm 2 m/S 705 mmHg 95%
    03:00 +4°C° 1 mm 3 m/S 705 mmHg 95%
    04:00 +4°C° 1 mm 3 m/S 705 mmHg 95%
    05:00 +4°C° 1,1 mm 3 m/S 705 mmHg 95%
    06:00 +4°C° 1,1 mm 3 m/S 705 mmHg 95%
    07:00 +4°C° 1,1 mm 3 m/S 706 mmHg 95%
    08:00 +4°C° 0,9 mm 3 m/S 706 mmHg 93%
    09:00 +5°C° 0,9 mm 3 m/S 706 mmHg 92%
    10:00 +5°C° 0,9 mm 4 m/S 706 mmHg 90%
    11:00 +5°C° 0,6 mm 4 m/S 706 mmHg 90%
    12:00 +5°C° 0,6 mm 4 m/S 706 mmHg 89%
    13:00 +6°C° 0,6 mm 4 m/S 706 mmHg 89%
    14:00 +5°C° 0,7 mm 3 m/S 707 mmHg 90%
    15:00 +5°C° 0,7 mm 3 m/S 707 mmHg 91%
    16:00 +5°C° 0,7 mm 3 m/S 707 mmHg 91%
    17:00 +5°C° 1 mm 3 m/S 708 mmHg 92%
    18:00 +5°C° 1 mm 3 m/S 708 mmHg 93%
    19:00 +6°C° 1 mm 2 m/S 709 mmHg 95%
    20:00 +6°C° 1,1 mm 2 m/S 709 mmHg 95%
    21:00 +6°C° 1,1 mm 2 m/S 709 mmHg 95%
    22:00 +6°C° 1,1 mm 2 m/S 710 mmHg 96%
    23:00 +6°C° 0,7 mm 2 m/S 710 mmHg 96%

    Morgen, 24 Oktober, Dienstag

    Zeit Temperatur Niederschläge Wind Luftdruck Luftfeuchtigkeit
    00:00 +6°C° 0,7 mm 2 m/S 710 mmHg 96%
    01:00 +6°C° 0,7 mm 2 m/S 711 mmHg 96%
    02:00 +6°C° 0,6 mm 2 m/S 711 mmHg 96%
    03:00 +6°C° 0,6 mm 2 m/S 711 mmHg 96%
    04:00 +6°C° 0,6 mm 2 m/S 711 mmHg 96%
    05:00 +6°C° 0,4 mm 2 m/S 711 mmHg 96%
    06:00 +6°C° 0,4 mm 2 m/S 712 mmHg 96%
    07:00 +6°C° 0,4 mm 2 m/S 712 mmHg 96%
    08:00 +6°C° 0,1 mm 2 m/S 712 mmHg 95%
    09:00 +7°C° 0,1 mm 2 m/S 712 mmHg 93%
    10:00 +8°C° 0,1 mm 2 m/S 712 mmHg 91%
    11:00 +8°C° 0,1 mm 2 m/S 712 mmHg 90%
    12:00 +9°C° 0,1 mm 2 m/S 712 mmHg 89%
    13:00 +9°C° 0,1 mm 2 m/S 712 mmHg 88%
    14:00 +10°C° 0 mm 1 m/S 712 mmHg 88%
    15:00 +10°C° 0 mm 1 m/S 712 mmHg 89%
    16:00 +10°C° 0 mm 1 m/S 712 mmHg 90%
    17:00 +9°C° 0 mm 1 m/S 712 mmHg 90%
    18:00 +9°C° 0 mm 1 m/S 713 mmHg 91%
    19:00 +7°C° 0 mm 2 m/S 713 mmHg 91%
    20:00 +7°C° 0 mm 2 m/S 713 mmHg 91%
    21:00 +7°C° 0 mm 2 m/S 714 mmHg 91%
    22:00 +7°C° 0 mm 2 m/S 714 mmHg 90%
    23:00 +7°C° 0 mm 2 m/S 714 mmHg 90%

    übermorgen, 25 Oktober, Mittwoch

    Zeit Temperatur Niederschläge Wind Luftdruck Luftfeuchtigkeit
    00:00 +6°C° 0 mm 2 m/S 713 mmHg 90%
    01:00 +7°C° 0 mm 1 m/S 713 mmHg 90%
    02:00 +6°C° 0 mm 2 m/S 713 mmHg 90%
    03:00 +6°C° 0 mm 2 m/S 713 mmHg 90%
    04:00 +6°C° 0 mm 2 m/S 713 mmHg 90%
    05:00 +6°C° 0 mm 2 m/S 713 mmHg 89%
    06:00 +7°C° 0 mm 1 m/S 713 mmHg 89%
    07:00 +7°C° 0 mm 1 m/S 713 mmHg 88%
    08:00 +9°C° 0 mm 1 m/S 713 mmHg 86%
    09:00 +11°C° 0 mm 1 m/S 713 mmHg 83%
    10:00 +12°C° 0 mm 0 m/S 713 mmHg 81%
    11:00 +13°C° 0 mm 0 m/S 713 mmHg 79%
    12:00 +14°C° 0 mm 0 m/S 713 mmHg 78%
    13:00 +15°C° 0 mm 0 m/S 713 mmHg 76%
    14:00 +14°C° 0 mm 0 m/S 713 mmHg 79%
    15:00 +13°C° 0 mm 0 m/S 713 mmHg 83%
    16:00 +12°C° 0 mm 0 m/S 713 mmHg 86%
    17:00 +12°C° 0 mm 1 m/S 713 mmHg 87%
    18:00 +11°C° 0 mm 1 m/S 713 mmHg 89%
    19:00 +10°C° 0 mm 1 m/S 714 mmHg 90%
    20:00 +10°C° 0 mm 1 m/S 714 mmHg 88%
    21:00 +9°C° 0 mm 1 m/S 714 mmHg 87%
    22:00 +8°C° 0 mm 2 m/S 714 mmHg 85%
    23:00 +8°C° 0 mm 2 m/S 714 mmHg 84%

    26 Oktober, Donnerstag

    Zeit Temperatur Niederschläge Wind Luftdruck Luftfeuchtigkeit
    00:00 +8°C° 0 mm 2 m/S 714 mmHg 83%
    01:00 +8°C° 0 mm 2 m/S 714 mmHg 82%
    02:00 +8°C° 0 mm 2 m/S 714 mmHg 82%
    03:00 +8°C° 0 mm 2 m/S 714 mmHg 81%
    04:00 +8°C° 0 mm 2 m/S 714 mmHg 81%
    05:00 +8°C° 0 mm 2 m/S 714 mmHg 80%
    06:00 +8°C° 0 mm 2 m/S 714 mmHg 80%
    07:00 +8°C° 0 mm 2 m/S 714 mmHg 80%
    08:00 +11°C° 0 mm 1 m/S 714 mmHg 78%
    09:00 +13°C° 0 mm 1 m/S 714 mmHg 76%
    10:00 +14°C° 0 mm 0 m/S 714 mmHg 74%
    11:00 +15°C° 0 mm 0 m/S 714 mmHg 72%
    12:00 +16°C° 0 mm 0 m/S 714 mmHg 70%
    13:00 +19°C° 0 mm 1 m/S 714 mmHg 68%
    14:00 +16°C° 0 mm 0 m/S 713 mmHg 72%
    15:00 +15°C° 0 mm 0 m/S 713 mmHg 77%
    16:00 +14°C° 0 mm 0 m/S 713 mmHg 81%
    17:00 +14°C° 0 mm 1 m/S 713 mmHg 83%
    18:00 +13°C° 0 mm 1 m/S 713 mmHg 85%
    19:00 +10°C° 0 mm 2 m/S 713 mmHg 86%
    20:00 +10°C° 0 mm 2 m/S 713 mmHg 85%
    21:00 +10°C° 0 mm 2 m/S 713 mmHg 83%
    22:00 +9°C° 0 mm 2 m/S 713 mmHg 82%
    23:00 +9°C° 0 mm 2 m/S 712 mmHg 81%

    27 Oktober, Freitag

    Zeit Temperatur Niederschläge Wind Luftdruck Luftfeuchtigkeit
    00:00 +9°C° 0 mm 2 m/S 712 mmHg 80%
    01:00 +9°C° 0 mm 2 m/S 712 mmHg 79%
    02:00 +9°C° 0 mm 2 m/S 711 mmHg 79%
    03:00 +9°C° 0 mm 2 m/S 711 mmHg 79%
    04:00 +9°C° 0 mm 2 m/S 711 mmHg 79%
    05:00 +9°C° 0 mm 2 m/S 710 mmHg 79%
    06:00 +9°C° 0 mm 2 m/S 710 mmHg 80%
    07:00 +9°C° 0 mm 2 m/S 710 mmHg 80%
    08:00 +10°C° 0 mm 2 m/S 710 mmHg 79%
    09:00 +12°C° 0 mm 2 m/S 709 mmHg 78%
    10:00 +13°C° 0 mm 3 m/S 709 mmHg 77%
    11:00 +13°C° 0,2 mm 3 m/S 709 mmHg 78%
    12:00 +13°C° 0,2 mm 4 m/S 708 mmHg 80%
    13:00 +13°C° 0,2 mm 4 m/S 708 mmHg 81%
    14:00 +12°C° 2 mm 4 m/S 708 mmHg 86%
    15:00 +11°C° 2 mm 3 m/S 708 mmHg 91%
    16:00 +10°C° 2 mm 3 m/S 708 mmHg 95%
    17:00 +9°C° 1,4 mm 3 m/S 708 mmHg 95%
    18:00 +8°C° 1,4 mm 3 m/S 709 mmHg 95%
    19:00 +8°C° 1,4 mm 3 m/S 709 mmHg 95%
    20:00 +7°C° 0,2 mm 3 m/S 710 mmHg 95%
    21:00 +7°C° 0,2 mm 3 m/S 710 mmHg 95%
    22:00 +7°C° 0,2 mm 3 m/S 711 mmHg 95%
    23:00 +5°C° 0,2 mm 3 m/S 711 mmHg 95%

    28 Oktober, Samstag

    Zeit Temperatur Niederschläge Wind Luftdruck Luftfeuchtigkeit
    00:00 +5°C° 0,2 mm 3 m/S 711 mmHg 95%
    01:00 +5°C° 0,2 mm 3 m/S 711 mmHg 96%
    02:00 +5°C° 0,3 mm 3 m/S 711 mmHg 95%
    03:00 +4°C° 0,3 mm 3 m/S 710 mmHg 95%
    04:00 +4°C° 0,3 mm 3 m/S 710 mmHg 95%
    05:00 +4°C° 0,2 mm 3 m/S 710 mmHg 95%
    06:00 +4°C° 0,2 mm 3 m/S 710 mmHg 94%
    07:00 +4°C° 0,2 mm 3 m/S 710 mmHg 94%
    08:00 +5°C° 0,1 mm 3 m/S 710 mmHg 91%
    09:00 +5°C° 0,1 mm 3 m/S 709 mmHg 88%
    10:00 +7°C° 0,1 mm 3 m/S 709 mmHg 85%
    11:00 +7°C° 0,1 mm 4 m/S 709 mmHg 83%
    12:00 +7°C° 0,1 mm 4 m/S 708 mmHg 81%
    13:00 +7°C° 0,1 mm 4 m/S 707 mmHg 79%
    14:00 +7°C° 0,8 mm 4 m/S 707 mmHg 82%
    15:00 +6°C° 0,8 mm 4 m/S 707 mmHg 84%
    16:00 +5°C° 0,8 mm 4 m/S 706 mmHg 86%
    17:00 +5°C° 0,9 mm 4 m/S 706 mmHg 88%
    18:00 +5°C° 0,9 mm 4 m/S 707 mmHg 89%
    19:00 +5°C° 0,9 mm 4 m/S 707 mmHg 90%
    20:00 +5°C° 0,6 mm 4 m/S 707 mmHg 90%
    21:00 +3°C° 0,6 mm 5 m/S 707 mmHg 90%
    22:00 +3°C° 0,6 mm 5 m/S 707 mmHg 90%
    23:00 +3°C° 0,5 mm 5 m/S 707 mmHg 90%

    29 Oktober, Sonntag

    Zeit Temperatur Niederschläge Wind Luftdruck Luftfeuchtigkeit
    00:00 +3°C° 0,5 mm 5 m/S 707 mmHg 91%
    01:00 +3°C° 0,5 mm 5 m/S 707 mmHg 91%
    02:00 +3°C° 0,5 mm 5 m/S 707 mmHg 91%
    03:00 +5°C° 0,5 mm 5 m/S 707 mmHg 92%
    04:00 +5°C° 0,5 mm 4 m/S 707 mmHg 92%
    05:00 +5°C° 0,4 mm 4 m/S 707 mmHg 92%
    06:00 +5°C° 0,4 mm 4 m/S 708 mmHg 92%
    07:00 +4°C° 0,4 mm 4 m/S 708 mmHg 93%
    08:00 +5°C° 0,2 mm 4 m/S 708 mmHg 91%
    09:00 +5°C° 0,2 mm 4 m/S 708 mmHg 89%
    10:00 +6°C° 0,2 mm 4 m/S 709 mmHg 87%
    11:00 +6°C° 0,1 mm 4 m/S 708 mmHg 86%
    12:00 +7°C° 0,1 mm 4 m/S 708 mmHg 84%
    13:00 +7°C° 0,1 mm 4 m/S 708 mmHg 83%
    14:00 +8°C° 0,1 mm 3 m/S 708 mmHg 84%
    15:00 +8°C° 0,1 mm 3 m/S 708 mmHg 86%
    16:00 +7°C° 0,1 mm 2 m/S 708 mmHg 88%
    17:00 +7°C° 0,1 mm 2 m/S 709 mmHg 90%
    18:00 +6°C° 0,1 mm 2 m/S 709 mmHg 93%
    19:00 +5°C° 0,1 mm 2 m/S 710 mmHg 95%
    20:00 +5°C° 0,1 mm 2 m/S 710 mmHg 95%
    21:00 +5°C° 0,1 mm 2 m/S 710 mmHg 95%
    22:00 +5°C° 0,1 mm 2 m/S 710 mmHg 95%
    23:00 +5°C° 0 mm 2 m/S 710 mmHg 94%
    Mehr zeigen